Miscellaneous Local Product
Issued by NWS North Platte, NE

Home | Current Version | Previous Version | Text Only | Print | Product List | Glossary On
Versions: 1 2 3 4 5 6 7 8 9 10 11 12 13 14 15 16 17 18 19 20 21 22 23 24 25 26 27 28 29 30 31 32 33 34 35 36 37 38 39 40 41 42 43 44 45 46 47 48 49 50
000
AXUS43 KLBF 310210
MISLBF


WESTERN AND NORTH CENTRAL NEBRASKA HOURLY WEATHER ROUNDUP
NATIONAL WEATHER SERVICE NORTH PLATTE NE
900 PM CDT TUE AUG 30 2016

NOTE: "FAIR" INDICATES FEW OR NO CLOUDS BELOW 12,000 FEET WITH NO
SIGNIFICANT WEATHER AND/OR OBSTRUCTIONS TO VISIBILITY.

NOTE: STATIONS NOT REPORTING VARIABLES SUCH AS SKY/WEATHER OR
PRESSURE ARE PROVIDED BY RAWS AND APRS NETWORKS AND ARE NOT UNDER
NATIONAL WEATHER SERVICE QUALITY CONTROL.

...OBSERVATIONS IN AND NEAR THE EASTERN PANHANDLE OF NEBRASKA...

CITY           SKY/WX    TMP DP  RH WIND       PRES   REMARKS
PINE RIDGE     CLEAR     70  58  65 E9        30.19R
CHADRON        CLEAR     73  53  49 SE7       30.18R
ALLIANCE       CLOUDY    65  60  84 SE8       30.23R
SIDNEY         MOCLDY    66  60  81 S8        30.28R
CRESCENT LAKE    N/A     69  60  73 CALM        N/A
$$

...OBSERVATIONS IN NORTHERN NEBRASKA AND FAR SOUTHERN SOUTH DAKOTA...

CITY           SKY/WX    TMP DP  RH WIND       PRES   REMARKS
WINNER         FAIR      75  65  70 SE8       30.18R
VALENTINE      CLOUDY    73  63  70 SE6       30.20R
THEDFORD       MOCLDY    72  61  68 SE3       30.23R
AINSWORTH      CLOUDY    69  64  84 E7        30.22R
O`NEILL        CLOUDY    73  65  78 E5        30.21R
ORD            PTCLDY    71  66  84 E3        30.19R
BROKEN BOW     CLOUDY    66  65  96 CALM      30.21R
VALENTINE NWR    N/A     76  62  61 SE5         N/A
BUTTE            N/A     74  64  71 SE3         N/A
HALSEY           N/A     74  59  59 SE3         N/A
EWING            N/A     71  69  94 CALM        N/A
$$

...OBSERVATIONS IN SOUTHWEST NEBRASKA AND FAR NORTHEAST COLORADO...

CITY           SKY/WX    TMP DP  RH WIND       PRES   REMARKS
WRAY           FAIR      66  64  94 CALM      30.24R
HOLYOKE        FAIR      68  61  77 SE5       30.25R
IMPERIAL       PTCLDY    66  62  87 NE6       30.23R
OGALLALA       CLOUDY    72  62  71 CALM      30.23R
NORTH PLATTE   CLOUDY    68  64  87 E6        30.22R
MCCOOK         PTCLDY    69  66  90 E6        30.19S
LEXINGTON      CLOUDY    71  67  89 E3        30.21R
STAPLETON        N/A     69  64  84 CALM        N/A
GOTHENBURG       N/A     72  64  76 CALM        N/A
CALLAWAY         N/A     71  67  86 SE5         N/A
$$

...OBSERVATIONS IN CENTRAL LINCOLN COUNTY AREA...

CITY           SKY/WX    TMP DP  RH WIND       PRES   REMARKS
N.P. AIRPORT   CLOUDY    68  64  87 E6        30.22R
N.P. DOWNTOWN    N/A     71  65  82 CALM        N/A
N.P. SOUTHEAST   N/A     70  64  82 CALM        N/A
N.P. HILLCREST   N/A     69  64  83 SE6         N/A
$$

...SOME OBSERVATIONS FROM AROUND THE REGION...

CITY           SKY/WX    TMP DP  RH WIND       PRES   REMARKS
DENVER         CLOUDY    68  53  58 E10       30.29R
LARAMIE        CLEAR     63  44  50 E15       30.38R
CHEYENNE       CLEAR     64  51  62 S6        30.35R
SCOTTSBLUFF    CLEAR     69  58  67 E8        30.23R
RAPID CITY     MOCLDY    72  60  66 E6        30.18R
BISMARCK       CLOUDY    73  51  46 SE14      30.16S
PIERRE         CLOUDY    73  57  57 NE6       30.14S
SIOUX FALLS    PTCLDY    70  63  78 NE7       30.19R
OMAHA          CLOUDY    74  70  87 NW3       30.15R
GRAND ISLAND   CLOUDY    71  69  93 E5        30.20R
KANSAS CITY    CLOUDY    78  70  76 N7        30.12R
WICHITA        CLOUDY    74  69  85 N10       30.12S
OKLAHOMA CITY  MOCLDY    84  67  56 E9        30.05R
DALLAS         MOCLDY    85  70  60 NE6       29.97R
AMARILLO       CLOUDY    67  64  90 E3        30.22R
DODGE CITY     MOCLDY    69  66  90 CALM      30.20R
HAYS           CLOUDY    70  61  73 E10       30.19R
GOODLAND       TSTM      63  56  78 S9        30.23R
$$




USA.gov is the U.S. government's official web portal to all federal, state and local government web resources and services.